Flag for Germany Weather past 2 weeks in Worms, Rhineland-Palatinate, Germany

Now
73 °F

Scattered clouds.


Feels Like: 77 °F
Forecast: 56 / 80 °F
Wind: 5 mph from Northwest

Location: Baden Wurttemberg - Neuostheim

Current Time: Jul 31, 2014 at 1:44:13 PM

Latest Report: Jul 31, 2014 at 12:50 PM


Visibility: N/A

Pressure: 30.01 "Hg

Humidity: 50%

Dew point: 54 °F

Location of WormsLocation

Historic Weather in Worms — Graph

°F

Worms temperature yesterday

Maximum temperature yesterday: 72 °F (at 11:20 AM)
Minimum temperature yesterday: 66 °F (at 5:20 AM)
Average temperature yesterday: 70 °F

Past Weeks' High & Low Weather Summary

 TemperatureHumidityPressure
High93 °F (Jul 18, 4:50 PM)100% (Jul 21, 5:50 AM)30.18 "Hg (Jul 21, 5:50 AM)
Low59 °F (Jul 17, 5:50 AM)20% (Jul 18, 5:50 PM)29.74 "Hg (Jul 29, 4:20 PM)
Average75 °F62%29.93 "Hg
* Reported Jul 16 12:20 PM — Jul 31 12:50 PM, Worms, Weather by CustomWeather, © 2014

Note: Actual official high and low records may vary slightly from our data, if they occured in-between our weather recording intervals... More about our weather records

Advertising

Worms weather history for previous 24 hours

 ConditionsComfort  
Time TempWeatherWind HumidityBarometerVisibility
12:50 PM
Jul 31
73 °FScattered clouds.5 mph50%30.01 "HgN/A
12:20 PM73 °FSunny.3 mph53%30.01 "Hg10 mi
11:50 AM73 °FSunny.2 mph53%30.01 "Hg10 mi
11:20 AM73 °FSunny.3 mph57%30.01 "Hg10 mi
10:50 AM72 °FPassing clouds.5 mph65%30.01 "HgN/A
10:20 AM70 °FSunny.3 mph64%30.01 "Hg10 mi
9:50 AM68 °FPassing clouds.5 mph73%30.01 "HgN/A
9:20 AM66 °FPassing clouds.5 mph78%30.01 "HgN/A
8:50 AM66 °FPassing clouds.8 mph73%30.01 "HgN/A
8:20 AM66 °FPassing clouds.6 mph78%30.01 "HgN/A
7:50 AM66 °FPassing clouds.6 mph78%30.01 "HgN/A
7:20 AM64 °FPassing clouds.5 mph83%30.01 "HgN/A
6:50 AM63 °FClear.3 mph88%30.01 "Hg10 mi
6:20 AM63 °FClear.3 mph88%29.98 "Hg10 mi
5:50 AM64 °FClear.3 mph83%29.98 "Hg10 mi
5:20 AM64 °FClear.3 mph83%29.98 "Hg10 mi
8:50 PM
Jul 30
72 °FPartly sunny.5 mph69%29.92 "HgN/A
8:20 PM72 °FPartly sunny.7 mph69%29.92 "HgN/A
7:50 PM72 °FBroken clouds.7 mph69%29.89 "HgN/A
7:20 PM72 °FOvercast.9 mph69%29.89 "HgN/A
6:50 PM72 °FOvercast.7 mph69%29.89 "HgN/A
6:20 PM72 °FPartly sunny.9 mph69%29.89 "HgN/A
5:50 PM72 °FOvercast.10 mph73%29.89 "HgN/A
5:20 PM72 °FBroken clouds.10 mph73%29.89 "HgN/A
4:50 PM72 °FBroken clouds.14 mph69%29.86 "HgN/A
4:20 PM72 °FScattered clouds.13 mph69%29.86 "HgN/A
3:50 PM72 °FBroken clouds.14 mph73%29.86 "HgN/A
3:20 PM72 °FBroken clouds.12 mph73%29.86 "HgN/A
2:50 PM72 °FBroken clouds.12 mph73%29.86 "HgN/A
2:20 PM70 °FSprinkles. Broken clouds.14 mph78%29.86 "HgN/A
1:50 PM72 °FScattered showers. Broken clouds.16 mph78%29.83 "HgN/A
1:20 PM72 °FScattered showers. Broken clouds.15 mph73%29.83 "HgN/A
Weather by CustomWeather, © 2014

See weather overviewHow to use our weather pages